DLH412 EDDL-LSZH

Flight info

Callsign DLH412
Flight time 0h 57m
Altitude 31000
Route DODEN7Z DODEN Y852 TUSUK DCT ULNOK L607 SUNEG T721 LAMGO/N0443F270 T721 RILAX
Aircraft A320/M-SDE3FGHIRWY/LB1

Departure

Time 2026-05-05 19:49
Airport Düsseldorf Airport (EDDL)

Arrival

Time 2026-05-05 20:46
Airport Zürich Airport (LSZH)
Time Latitude Longitude Altitude Speed Heading
2026-05-05 19:06 51.28192 6.76568 137 ft 0 kts 96°
2026-05-05 19:34 51.28189 6.76577 137 ft 0 kts 117°
2026-05-05 19:35 51.28193 6.76565 137 ft 2 kts 115°
2026-05-05 19:35 51.28200 6.76541 109 ft 2 kts 111°
2026-05-05 19:35 51.28205 6.76516 137 ft 2 kts 104°
2026-05-05 19:36 51.28208 6.76491 137 ft 2 kts 92°
2026-05-05 19:36 51.28208 6.76464 137 ft 2 kts 69°
2026-05-05 19:36 51.28199 6.76442 137 ft 2 kts 33°
2026-05-05 19:36 51.28187 6.76431 137 ft 1 kts 11°
2026-05-05 19:37 51.28184 6.76430 137 ft 0 kts
2026-05-05 19:40 51.28185 6.76430 137 ft 1 kts
2026-05-05 19:40 51.28200 6.76434 137 ft 3 kts
2026-05-05 19:40 51.28216 6.76437 137 ft 2 kts
2026-05-05 19:40 51.28243 6.76459 137 ft 8 kts 37°
2026-05-05 19:41 51.28288 6.76502 137 ft 7 kts 15°
2026-05-05 19:41 51.28320 6.76476 137 ft 5 kts 293°
2026-05-05 19:41 51.28314 6.76427 137 ft 6 kts 248°
2026-05-05 19:41 51.28283 6.76351 137 ft 8 kts 234°
2026-05-05 19:42 51.28246 6.76268 137 ft 10 kts 234°
2026-05-05 19:42 51.28204 6.76174 137 ft 9 kts 234°
2026-05-05 19:42 51.28175 6.76115 137 ft 4 kts 232°
2026-05-05 19:42 51.28169 6.76101 137 ft 0 kts 231°
2026-05-05 19:43 51.28161 6.76086 137 ft 7 kts 231°
2026-05-05 19:43 51.28123 6.76012 137 ft 7 kts 231°
2026-05-05 19:43 51.28098 6.75959 137 ft 7 kts 233°
2026-05-05 19:43 51.28072 6.75904 137 ft 7 kts 233°
2026-05-05 19:44 51.28018 6.75787 137 ft 19 kts 233°
2026-05-05 19:44 51.27954 6.75650 137 ft 9 kts 234°
2026-05-05 19:44 51.27946 6.75585 136 ft 4 kts 282°
2026-05-05 19:44 51.27954 6.75567 136 ft 4 kts 309°
2026-05-05 19:45 51.27974 6.75544 136 ft 0 kts 330°
2026-05-05 19:45 51.27976 6.75542 136 ft 3 kts 330°
2026-05-05 19:46 51.28026 6.75501 133 ft 8 kts 338°
2026-05-05 19:46 51.28078 6.75479 132 ft 6 kts 355°
2026-05-05 19:46 51.28105 6.75506 132 ft 6 kts 48°
2026-05-05 19:46 51.28128 6.75553 132 ft 4 kts 53°
2026-05-05 19:47 51.28134 6.75567 132 ft 0 kts 53°
2026-05-05 19:48 51.28160 6.75621 132 ft 29 kts 53°
2026-05-05 19:48 51.28438 6.76205 132 ft 99 kts 53°
2026-05-05 19:49 51.28969 6.77311 137 ft 150 kts 51°
2026-05-05 19:49 51.29397 6.78217 493 ft 151 kts 49°
2026-05-05 19:49 51.30237 6.80000 1565 ft 149 kts 50°
2026-05-05 19:49 51.30858 6.81312 2257 ft 147 kts 53°
2026-05-05 19:50 51.31492 6.82647 2722 ft 159 kts 54°
2026-05-05 19:50 51.32203 6.84150 2969 ft 180 kts 53°
2026-05-05 19:50 51.33007 6.85849 3166 ft 203 kts 53°
2026-05-05 19:50 51.33721 6.87938 3439 ft 228 kts 77°
2026-05-05 19:51 51.33651 6.90573 3862 ft 251 kts 108°
2026-05-05 19:51 51.32673 6.92927 4616 ft 262 kts 139°
2026-05-05 19:51 51.31107 6.94482 5507 ft 268 kts 152°
2026-05-05 19:51 51.29441 6.95872 6430 ft 272 kts 148°
2026-05-05 19:52 51.27870 6.97598 7279 ft 276 kts 144°
2026-05-05 19:52 51.26308 6.99423 8169 ft 280 kts 143°
2026-05-05 19:52 51.24725 7.01282 9038 ft 284 kts 143°
2026-05-05 19:52 51.23131 7.03160 10015 ft 279 kts 143°
2026-05-05 19:53 51.21623 7.04938 11345 ft 260 kts 143°
2026-05-05 19:53 51.20193 7.06635 12357 ft 255 kts 144°
2026-05-05 19:53 51.18740 7.08270 13193 ft 256 kts 146°
2026-05-05 19:53 51.17199 7.09901 13568 ft 277 kts 147°
2026-05-05 19:54 51.15511 7.11642 13781 ft 301 kts 147°
2026-05-05 19:54 51.13740 7.13461 14238 ft 301 kts 148°
2026-05-05 19:54 51.11978 7.15275 14992 ft 301 kts 147°
2026-05-05 19:54 51.10222 7.17091 15764 ft 301 kts 147°
2026-05-05 19:55 51.08443 7.18934 16228 ft 314 kts 147°
2026-05-05 19:55 51.06547 7.20897 16366 ft 335 kts 147°
2026-05-05 19:55 51.04539 7.22984 16500 ft 355 kts 147°
2026-05-05 19:55 51.02417 7.25193 16641 ft 374 kts 147°
2026-05-05 19:56 51.00198 7.27504 17001 ft 385 kts 147°
2026-05-05 19:56 50.97941 7.29854 17558 ft 390 kts 147°
2026-05-05 19:56 50.95663 7.32222 18149 ft 394 kts 147°
2026-05-05 19:56 50.93269 7.34381 18656 ft 397 kts 157°
2026-05-05 19:57 50.90704 7.36028 19196 ft 400 kts 158°
2026-05-05 19:57 50.88948 7.37124 19560 ft 401 kts 158°
2026-05-05 19:57 50.85504 7.39267 20501 ft 396 kts 159°
2026-05-05 19:57 50.82974 7.40836 21343 ft 394 kts 158°
2026-05-05 19:58 50.80408 7.42426 21914 ft 391 kts 159°
2026-05-05 19:58 50.77935 7.43956 23315 ft 371 kts 159°
2026-05-05 19:58 50.75663 7.45634 24499 ft 352 kts 147°
2026-05-05 19:58 50.73692 7.47740 25684 ft 331 kts 146°
2026-05-05 19:59 50.71835 7.49748 26715 ft 318 kts 145°
2026-05-05 19:59 50.70020 7.51710 27343 ft 316 kts 145°
2026-05-05 19:59 50.68209 7.53669 27857 ft 317 kts 145°
2026-05-05 19:59 50.66390 7.55637 28334 ft 318 kts 145°
2026-05-05 20:00 50.64557 7.57615 28791 ft 320 kts 145°
2026-05-05 20:00 50.62690 7.59630 29224 ft 322 kts 145°
2026-05-05 20:00 50.60835 7.61631 29683 ft 324 kts 145°
2026-05-05 20:00 50.58965 7.63645 30074 ft 327 kts 145°
2026-05-05 20:01 50.57083 7.65671 30381 ft 331 kts 145°
2026-05-05 20:01 50.55151 7.67749 30512 ft 341 kts 145°
2026-05-05 20:01 50.53162 7.69886 30636 ft 351 kts 145°
2026-05-05 20:01 50.51121 7.72075 30768 ft 360 kts 145°
2026-05-05 20:02 50.49023 7.74325 30893 ft 369 kts 145°
2026-05-05 20:02 50.46873 7.76625 31027 ft 378 kts 145°
2026-05-05 20:02 50.44676 7.78976 31155 ft 386 kts 145°
2026-05-05 20:02 50.42433 7.81374 31292 ft 394 kts 145°
2026-05-05 20:03 50.40147 7.83817 31407 ft 402 kts 145°
2026-05-05 20:03 50.37813 7.86303 31554 ft 409 kts 145°
2026-05-05 20:03 50.35441 7.88822 31672 ft 416 kts 145°
2026-05-05 20:03 50.33025 7.91384 31815 ft 422 kts 145°
2026-05-05 20:04 50.30587 7.93966 32067 ft 424 kts 145°
2026-05-05 20:04 50.28142 7.96556 32445 ft 424 kts 146°
2026-05-05 20:04 50.25704 7.99135 32858 ft 423 kts 146°
2026-05-05 20:04 50.23304 8.01672 33266 ft 422 kts 146°
2026-05-05 20:05 50.20843 8.04273 33696 ft 421 kts 146°
2026-05-05 20:05 50.18498 8.06750 34044 ft 420 kts 146°
2026-05-05 20:05 50.16057 8.09325 34346 ft 421 kts 146°
2026-05-05 20:05 50.13632 8.11880 34624 ft 422 kts 146°
2026-05-05 20:06 50.11195 8.14447 34796 ft 424 kts 146°
2026-05-05 20:06 50.06275 8.19604 34840 ft 427 kts 147°
2026-05-05 20:07 50.01339 8.24766 34836 ft 428 kts 147°
2026-05-05 20:07 49.97231 8.29057 34836 ft 428 kts 147°
2026-05-05 20:08 49.92273 8.34214 34838 ft 429 kts 147°
2026-05-05 20:08 49.87318 8.39358 34834 ft 428 kts 147°
2026-05-05 20:09 49.82671 8.45130 34811 ft 430 kts 137°
2026-05-05 20:09 49.78328 8.51462 34803 ft 430 kts 138°
2026-05-05 20:10 49.73792 8.57694 34804 ft 429 kts 146°
2026-05-05 20:10 49.68531 8.61657 34805 ft 427 kts 164°
2026-05-05 20:11 49.62700 8.63457 34815 ft 428 kts 169°
2026-05-05 20:11 49.56866 8.65064 34826 ft 429 kts 170°
2026-05-05 20:12 49.50949 8.66691 34827 ft 429 kts 169°
2026-05-05 20:12 49.45192 8.68871 34829 ft 430 kts 158°
2026-05-05 20:13 49.39742 8.72663 34828 ft 430 kts 156°
2026-05-05 20:13 49.34252 8.76484 34814 ft 431 kts 156°
2026-05-05 20:14 49.28785 8.80254 34821 ft 431 kts 157°
2026-05-05 20:14 49.23271 8.83914 34817 ft 431 kts 162°
2026-05-05 20:15 49.17396 8.85362 34808 ft 429 kts 181°
2026-05-05 20:15 49.11526 8.84141 34817 ft 430 kts 190°
2026-05-05 20:16 49.05590 8.82520 34819 ft 430 kts 189°
2026-05-05 20:16 48.99694 8.80924 34822 ft 430 kts 190°
2026-05-05 20:17 48.93832 8.79337 34835 ft 430 kts 190°
2026-05-05 20:17 48.87904 8.77737 34851 ft 430 kts 190°
2026-05-05 20:18 48.82001 8.76155 34855 ft 431 kts 190°
2026-05-05 20:18 48.76155 8.74590 34858 ft 430 kts 190°
2026-05-05 20:19 48.70249 8.73004 34859 ft 430 kts 190°
2026-05-05 20:19 48.64350 8.71428 34862 ft 430 kts 191°
2026-05-05 20:20 48.58459 8.69861 34865 ft 430 kts 191°
2026-05-05 20:20 48.52555 8.68294 34871 ft 430 kts 191°
2026-05-05 20:21 48.46655 8.66732 34872 ft 430 kts 191°
2026-05-05 20:21 48.40759 8.65164 34881 ft 430 kts 191°
2026-05-05 20:22 48.34864 8.63559 34665 ft 430 kts 192°
2026-05-05 20:22 48.31930 8.62685 34435 ft 429 kts 192°
2026-05-05 20:22 48.29040 8.61792 34206 ft 429 kts 192°
2026-05-05 20:22 48.26082 8.60871 33905 ft 429 kts 192°
2026-05-05 20:23 48.23179 8.59972 32798 ft 435 kts 192°
2026-05-05 20:23 48.20208 8.59064 31913 ft 437 kts 192°
2026-05-05 20:23 48.17213 8.58160 30928 ft 440 kts 193°
2026-05-05 20:23 48.14193 8.57256 29825 ft 445 kts 193°
2026-05-05 20:24 48.11566 8.56477 28735 ft 450 kts 192°
2026-05-05 20:24 48.09901 8.55977 28094 ft 451 kts 193°
2026-05-05 20:24 48.06810 8.55051 26847 ft 455 kts 192°
2026-05-05 20:24 48.03702 8.54129 25673 ft 457 kts 192°
2026-05-05 20:25 48.00585 8.53261 24491 ft 453 kts 188°
2026-05-05 20:25 47.97388 8.53131 23541 ft 443 kts 177°
2026-05-05 20:25 47.94465 8.53858 22624 ft 433 kts 167°
2026-05-05 20:25 47.91454 8.55549 21711 ft 424 kts 156°
2026-05-05 20:26 47.89164 8.57636 20970 ft 418 kts 146°
2026-05-05 20:26 47.86896 8.60365 20179 ft 410 kts 143°
2026-05-05 20:26 47.84738 8.63000 19442 ft 401 kts 143°
2026-05-05 20:26 47.82562 8.65645 18705 ft 397 kts 143°
2026-05-05 20:27 47.80426 8.68228 17969 ft 394 kts 144°
2026-05-05 20:27 47.78332 8.70755 17279 ft 391 kts 144°
2026-05-05 20:27 47.76187 8.73341 16625 ft 391 kts 144°
2026-05-05 20:27 47.74081 8.75884 15996 ft 390 kts 144°
2026-05-05 20:28 47.72016 8.78377 15407 ft 388 kts 144°
2026-05-05 20:28 47.69891 8.80939 14795 ft 387 kts 144°
2026-05-05 20:28 47.67672 8.83121 14201 ft 379 kts 159°
2026-05-05 20:28 47.65173 8.84145 13585 ft 371 kts 178°
2026-05-05 20:29 47.62667 8.83914 12964 ft 363 kts 195°
2026-05-05 20:29 47.60380 8.82535 12669 ft 348 kts 213°
2026-05-05 20:29 47.58562 8.80325 12535 ft 331 kts 229°
2026-05-05 20:29 47.57319 8.77548 12405 ft 318 kts 245°
2026-05-05 20:30 47.56699 8.74479 12278 ft 307 kts 260°
2026-05-05 20:30 47.56675 8.71430 12114 ft 295 kts 275°
2026-05-05 20:30 47.57178 8.68535 11624 ft 290 kts 289°
2026-05-05 20:30 47.57954 8.65792 10972 ft 288 kts 289°
2026-05-05 20:31 47.58713 8.63107 10563 ft 277 kts 288°
2026-05-05 20:31 47.59461 8.60463 9873 ft 279 kts 288°
2026-05-05 20:31 47.60208 8.57848 9331 ft 272 kts 288°
2026-05-05 20:31 47.60937 8.55301 8813 ft 266 kts 288°
2026-05-05 20:32 47.61650 8.52797 8293 ft 260 kts 288°
2026-05-05 20:32 47.62339 8.50363 7797 ft 254 kts 288°
2026-05-05 20:32 47.63015 8.47969 7300 ft 252 kts 288°
2026-05-05 20:32 47.63688 8.45584 6799 ft 250 kts 288°
2026-05-05 20:33 47.64359 8.43213 6312 ft 248 kts 288°
2026-05-05 20:33 47.65020 8.40867 5799 ft 244 kts 287°
2026-05-05 20:33 47.65303 8.38467 5293 ft 234 kts 262°
2026-05-05 20:33 47.64927 8.36138 4788 ft 231 kts 243°
2026-05-05 20:34 47.63798 8.34506 4276 ft 234 kts 205°
2026-05-05 20:34 47.62189 8.34399 4030 ft 237 kts 163°
2026-05-05 20:34 47.60913 8.35841 4025 ft 232 kts 132°
2026-05-05 20:34 47.59855 8.37629 4036 ft 230 kts 139°
2026-05-05 20:35 47.58692 8.39258 4027 ft 229 kts 140°
2026-05-05 20:35 47.57770 8.41254 4039 ft 253 kts 111°
2026-05-05 20:35 47.57612 8.43903 4033 ft 266 kts 80°
2026-05-05 20:35 47.58239 8.46505 4035 ft 270 kts 64°
2026-05-05 20:36 47.59038 8.49028 4031 ft 272 kts 70°
2026-05-05 20:36 47.59342 8.51763 4035 ft 270 kts 91°
2026-05-05 20:36 47.59337 8.54540 4033 ft 272 kts 92°
2026-05-05 20:36 47.59328 8.57389 4170 ft 274 kts 92°
2026-05-05 20:37 47.59315 8.60216 4953 ft 285 kts 92°
2026-05-05 20:37 47.59304 8.62221 5514 ft 291 kts 92°
2026-05-05 20:37 47.59283 8.66247 5962 ft 297 kts 92°
2026-05-05 20:37 47.59269 8.69300 6023 ft 296 kts 92°
2026-05-05 20:38 47.59259 8.72288 6023 ft 281 kts 92°
2026-05-05 20:38 47.59250 8.75103 6024 ft 264 kts 92°
2026-05-05 20:38 47.59239 8.77750 6022 ft 253 kts 93°
2026-05-05 20:38 47.59225 8.80344 6019 ft 251 kts 93°
2026-05-05 20:39 47.59125 8.82916 6017 ft 255 kts 106°
2026-05-05 20:39 47.58395 8.85395 5751 ft 264 kts 133°
2026-05-05 20:39 47.57019 8.87036 5466 ft 248 kts 161°
2026-05-05 20:39 47.55400 8.87568 5188 ft 232 kts 186°
2026-05-05 20:40 47.53895 8.87452 5044 ft 222 kts 188°
2026-05-05 20:40 47.52374 8.87334 5025 ft 218 kts 188°
2026-05-05 20:40 47.50853 8.87216 5025 ft 218 kts 188°
2026-05-05 20:40 47.49339 8.87102 5025 ft 218 kts 188°
2026-05-05 20:41 47.47824 8.86971 5026 ft 217 kts 193°
2026-05-05 20:41 47.46397 8.86348 5025 ft 211 kts 211°
2026-05-05 20:41 47.45232 8.85110 5032 ft 202 kts 229°
2026-05-05 20:41 47.44439 8.83485 5028 ft 189 kts 246°
2026-05-05 20:42 47.44032 8.81668 4961 ft 186 kts 261°
2026-05-05 20:42 47.44013 8.79771 4771 ft 186 kts 274°
2026-05-05 20:42 47.44153 8.77868 4521 ft 185 kts 274°
2026-05-05 20:42 47.44293 8.75979 4268 ft 183 kts 274°
2026-05-05 20:43 47.44423 8.74200 4000 ft 178 kts 274°
2026-05-05 20:43 47.44552 8.72427 3746 ft 170 kts 274°
2026-05-05 20:43 47.44675 8.70747 3500 ft 160 kts 274°
2026-05-05 20:43 47.44795 8.69169 3236 ft 151 kts 274°
2026-05-05 20:44 47.44906 8.67653 3000 ft 146 kts 274°
2026-05-05 20:44 47.45002 8.66174 2753 ft 144 kts 272°
2026-05-05 20:44 47.45097 8.64694 2511 ft 145 kts 274°
2026-05-05 20:44 47.45219 8.63207 2270 ft 147 kts 276°
2026-05-05 20:45 47.45425 8.60195 1867 ft 148 kts 275°
2026-05-05 20:45 47.45545 8.58680 1674 ft 148 kts 274°
2026-05-05 20:45 47.45654 8.57173 1472 ft 147 kts 273°
2026-05-05 20:46 47.45754 8.55722 1399 ft 129 kts 277°
2026-05-05 20:46 47.45829 8.54674 1400 ft 78 kts 277°
2026-05-05 20:46 47.45877 8.54300 1404 ft 16 kts 303°
2026-05-05 20:46 47.45942 8.54272 1401 ft 8 kts 23°
2026-05-05 20:47 47.45956 8.54317 1403 ft 6 kts 86°
2026-05-05 20:47 47.45954 8.54373 1402 ft 5 kts 93°
2026-05-05 20:47 47.45952 8.54415 1402 ft 4 kts 95°
2026-05-05 20:47 47.45949 8.54453 1408 ft 4 kts 95°
2026-05-05 20:48 47.45947 8.54491 1404 ft 4 kts 95°
2026-05-05 20:48 47.45944 8.54530 1401 ft 4 kts 95°
2026-05-05 20:48 47.45942 8.54570 1400 ft 4 kts 95°
2026-05-05 20:48 47.45939 8.54612 1400 ft 4 kts 96°
2026-05-05 20:49 47.45938 8.54625 1402 ft 0 kts 97°
2026-05-05 20:49 47.45933 8.54682 1406 ft 9 kts 97°
2026-05-05 20:49 47.45925 8.54774 1397 ft 9 kts 94°
2026-05-05 20:49 47.45920 8.54873 1401 ft 10 kts 94°
2026-05-05 20:50 47.45919 8.54903 1398 ft 1 kts 94°
2026-05-05 20:50 47.45918 8.54918 1395 ft 2 kts 94°
2026-05-05 20:50 47.45917 8.54942 1394 ft 3 kts 93°
2026-05-05 20:50 47.45917 8.54943 1394 ft 0 kts 93°
2026-05-05 20:51 47.45917 8.54944 1394 ft 0 kts 93°
2026-05-05 20:51 47.45917 8.54947 1394 ft 0 kts 93°
2026-05-05 20:52 47.45916 8.54980 1394 ft 1 kts 93°
2026-05-05 20:52 47.45915 8.54993 1394 ft 2 kts 93°
2026-05-05 20:53 47.45914 8.55017 1394 ft 2 kts 93°
2026-05-05 20:53 47.45914 8.55038 1393 ft 2 kts 93°
2026-05-05 20:53 47.45912 8.55074 1393 ft 9 kts 93°
2026-05-05 20:53 47.45946 8.55140 1395 ft 9 kts 34°
2026-05-05 20:54 47.45982 8.55197 1398 ft 6 kts 68°
2026-05-05 20:54 47.45983 8.55246 1394 ft 4 kts 95°
2026-05-05 20:54 47.45984 8.55268 1394 ft 1 kts 82°
2026-05-05 20:54 47.46002 8.55291 1405 ft 3 kts 16°
2026-05-05 20:55 47.46012 8.55291 1398 ft 2 kts
2026-05-05 20:55 47.46027 8.55293 1401 ft 2 kts
2026-05-05 20:55 47.46050 8.55296 1397 ft 3 kts
2026-05-05 20:55 47.46064 8.55299 1397 ft 1 kts
2026-05-05 20:56 47.46065 8.55299 1397 ft 0 kts